Zurück zum Katalog

ORSTED

AktivWissenschaftPO
NORAD 25635·PAYLOAD·🇩🇰 Denmark

Gestartet Feb 23, 1999 von Vandenberg Space Force Base

Loading…

Nächste Überflüge (nächste 24 Stunden)

TLE

AktuellSource: Space-Track

Epoche: Sep 14, 2026, 15:20 UTC

1 25635U 99008B   26257.63891931  .00000329  00000-0  80858-4 0  9996
2 25635  96.4702 144.7900 0129947 259.6264  99.0268 14.51886664454941

Verfolge ORSTED in Echtzeit mit AllMySat

Download on the App Store